EW9931 Weather Reports


time (UTC)temp
F
wind
direction
speed
knots
gust
knots
rain 1hr
in
rain 24hr
in
rain mn
in
humidity
%
barometer
mb
20260509234556 71 155 1.7 0.0 0.00 0.00 0.00 17 1004.1
20260509233033 70 205 2.6 0.0 0.00 0.00 0.00 17 1004.2
20260509231532 72 199 1.7 0.0 0.00 0.00 0.00 17 1003.6
20260509230027 72 198 1.7 0.0 0.00 0.00 0.00 13 1003.9
20260509224519 73 120 1.7 0.0 0.00 0.00 0.00 15 1004.0
20260509223016 73 155 0.9 0.0 0.00 0.00 0.00 10 1004.4
20260509221525 72 136 1.7 0.0 0.00 0.00 0.00 10 1004.4
20260509220007 71 200 1.7 0.0 0.00 0.00 0.00 9 1004.5
20260509214502 72 213 0.9 0.0 0.00 0.00 0.00 7 1004.7
20260509213058 73 113 0.9 0.0 0.00 0.00 0.00 6 1004.5
20260509211553 72 192 0.9 0.0 0.00 0.00 0.00 7 1005.1
20260509210057 73 131 0.9 0.0 0.00 0.00 0.00 7 1004.6
20260509204545 72 176 0.9 0.0 0.00 0.00 0.00 7 1004.7
20260509203045 73 127 1.7 0.0 0.00 0.00 0.00 5 1004.7
20260509201537 73 185 0.9 0.0 0.00 0.00 0.00 7 1004.7
20260509200037 73 144 0.9 0.0 0.00 0.00 0.00 11 1004.7
20260509194531 72 232 0.9 0.0 0.00 0.00 0.00 12 1004.7
20260509193029 71 158 0.9 0.0 0.00 0.00 0.00 10 1005.4
20260509191527 70 244 1.7 0.0 0.00 0.00 0.00 9 1005.6
20260509190040 70 230 1.7 0.0 0.00 0.00 0.00 10 1005.1
20260509184533 70 171 0.9 0.0 0.00 0.00 0.00 9 1005.1
20260509183028 69 210 0.9 0.0 0.00 0.00 0.00 9 1005.5
20260509181521 69 138 0.9 0.0 0.00 0.00 0.00 9 1005.5
20260509180019 68 130 0.9 0.0 0.00 0.00 0.00 10 1005.0
20260509174523 68 240 0.9 0.0 0.00 0.00 0.00 9 1005.4
20260509173016 67 240 0.9 0.0 0.00 0.00 0.00 9 1005.5
20260509171513 67 212 0.9 0.0 0.00 0.00 0.00 10 1005.3
20260509170023 66 128 0.0 0.0 0.00 0.00 0.00 11 1005.1
20260509164510 66 121 0.9 0.0 0.00 0.00 0.00 11 1005.1
20260509163007 66 165 0.0 0.0 0.00 0.00 0.00 12 1005.0
20260509161504 65 219 0.9 0.0 0.00 0.00 0.00 12 1005.4
20260509160100 64 185 0.0 0.0 0.00 0.00 0.00 13 1005.0
20260509154557 62 179 0.0 0.0 0.00 0.00 0.00 13 1005.4
20260509153054 61 141 0.0 0.0 0.00 0.00 0.00 15 1005.8
20260509151552 59 213 0.0 0.0 0.00 0.00 0.00 18 1006.4
20260509150045 56 213 0.0 0.0 0.00 0.00 0.00 21 1006.2
20260509144547 52 213 0.0 0.0 0.00 0.00 0.00 24 1006.7
20260509143037 49 213 0.0 0.0 0.00 0.00 0.00 27 1007.5
20260509141537 47 213 0.0 0.0 0.00 0.00 0.00 30 1007.3
20260509140036 47 213 0.0 0.0 0.00 0.00 0.00 29 1006.8
20260509134538 46 213 0.0 0.0 0.00 0.00 0.00 28 1006.8
20260509133034 46 213 0.0 0.0 0.00 0.00 0.00 25 1006.8
20260509131548 45 213 0.0 0.0 0.00 0.00 0.00 24 1006.7
20260509130042 45 213 0.0 0.0 0.00 0.00 0.00 23 1005.7
20260509124531 45 213 0.0 0.0 0.00 0.00 0.00 23 1005.6
20260509123029 45 213 0.0 0.0 0.00 0.00 0.00 22 1005.6
20260509121524 45 213 0.0 0.0 0.00 0.00 0.00 21 1005.6
20260509120023 45 213 0.0 0.0 0.00 0.00 0.00 20 1005.6
20260509114522 45 213 0.0 0.0 0.00 0.00 0.00 20 1005.2
20260509113021 45 213 0.0 0.0 0.00 0.00 0.00 20 1005.3
20260509111520 45 213 0.0 0.0 0.00 0.00 0.00 20 1005.4
20260509110024 45 213 0.0 0.0 0.00 0.00 0.00 19 1004.8
20260509104518 45 213 0.0 0.0 0.00 0.00 0.00 19 1004.9
20260509103020 45 213 0.0 0.0 0.00 0.00 0.00 18 1005.0
20260509101521 46 213 0.0 0.0 0.00 0.00 0.00 18 1005.0
20260509100018 46 213 0.0 0.0 0.00 0.00 0.00 18 1004.4
20260509094515 46 213 0.0 0.0 0.00 0.00 0.00 17 1004.6
20260509093019 46 213 0.0 0.0 0.00 0.00 0.00 15 1004.6
20260509091511 46 213 0.0 0.0 0.00 0.00 0.00 15 1004.9
20260509090009 46 213 0.0 0.0 0.00 0.00 0.00 16 1004.9
20260509084512 47 213 0.0 0.0 0.00 0.00 0.00 16 1005.1
20260509083007 47 213 0.0 0.0 0.00 0.00 0.00 15 1005.2
20260509081508 47 213 0.0 0.0 0.00 0.00 0.00 15 1005.2
20260509080004 47 213 0.0 0.0 0.00 0.00 0.00 15 1004.9
20260509074503 48 213 0.0 0.0 0.00 0.00 0.00 16 1004.9
20260509073004 48 213 0.0 0.0 0.00 0.00 0.00 16 1005.0
20260509071504 48 213 0.0 0.0 0.00 0.00 0.00 16 1005.1
20260509070001 49 213 0.0 0.0 0.00 0.00 0.00 15 1005.7
20260509064501 49 213 0.0 0.0 0.00 0.00 0.00 14 1005.4
20260509063001 49 213 0.0 0.0 0.00 0.00 0.00 15 1005.3
20260509061619 50 213 0.0 0.0 0.00 0.00 0.00 18 1005.4
20260509054616 50 213 0.0 0.0 0.00 0.00 0.00 15 1005.8
20260509053144 51 213 0.0 0.0 0.00 0.00 0.00 18 1005.9
20260509051558 51 213 0.0 0.0 0.00 0.00 0.00 19 1005.9
20260509050059 52 213 0.0 0.0 0.00 0.00 0.00 24 1006.2
20260509044557 52 213 0.0 0.0 0.00 0.00 0.00 26 1006.1
20260509043058 53 213 0.0 0.0 0.00 0.00 0.00 27 1006.0
20260509041556 53 213 0.0 0.0 0.00 0.00 0.00 29 1005.5
20260509040112 54 213 0.0 0.0 0.00 0.00 0.00 30 1006.0
20260509034622 55 213 0.0 0.0 0.00 0.00 0.00 34 1006.0
20260509033055 56 213 0.0 0.0 0.00 0.00 0.00 37 1005.2
20260509031554 57 213 0.0 0.0 0.00 0.00 0.00 37 1004.7
20260509030105 58 213 0.0 0.0 0.00 0.00 0.00 37 1006.8
20260509024554 58 213 0.0 0.0 0.00 0.00 0.00 36 1006.3
20260509023053 60 213 0.0 0.0 0.00 0.00 0.00 33 1005.8
20260509021552 61 213 0.0 0.0 0.00 0.00 0.00 30 1005.6
20260509020051 62 213 0.0 0.0 0.00 0.00 0.00 28 1007.0
20260509014551 62 213 0.0 0.0 0.00 0.00 0.00 29 1006.4
20260509013107 63 213 0.0 0.0 0.00 0.00 0.00 28 1006.5
20260509011559 64 213 0.0 0.0 0.00 0.00 0.00 27 1006.2
20260509010049 67 210 0.9 0.0 0.00 0.00 0.00 24 1005.9
20260509004548 69 140 0.9 0.0 0.00 0.00 0.00 22 1005.8
20260509003108 68 196 0.9 0.0 0.00 0.00 0.00 23 1006.0
20260509001547 67 219 0.9 0.0 0.00 0.00 0.00 23 1006.6
20260509000101 67 198 0.9 0.0 0.00 0.00 0.00 23 1006.0